Voltar ao catálogo

STARLINK-30880

AtivoComunicaçõesVLEO
NORAD 58232·PAYLOAD·🇺🇸 United States

Lançado Nov 8, 2023 de Cape Canaveral Space Force Station

Loading…

Próximas Passagens (próximas 24 horas)

TLE

AtualizadoSource: CelesTrak SupGP

Época: Sep 15, 2026, 03:08 UTC

1 58232C 23171C   26258.13104167  .00014643  00000+0  53037-3 0  2586
2 58232  43.0013 295.0145 0001345 260.1293  17.9717 15.27572006    13

Acompanhe STARLINK-30880 em tempo real com AllMySat

Download on the App Store